UWE-1

Satellite information

Favourite Embed

Satellite Type and Status

PAYLOADIN ORBIT

Key statistics

Satellite UWE-1 at a glance.

Uptime

7352

Days in orbit

Revolutions

≈ 14.7

Per day

Orbit

SSO

Sun Synchronous Orbit

Inclination

98.3

Latest

Satellite identification and parameters

Extended collection of information and parameters for UWE-1.

Object identification

Identified? True

Debris? False

Object name: UWE-1

International designator: 2005-043C

Object number (NORAD): 28892

Object ID (CCSDS): 28892

Country: GERMANY (GER)

Current information (Y/N): Y

RCS size: SMALL

Orbital parameters

Period: 97.864 minutes

Inclination: 98.2806 deg

SMA: 7034.666 km

Apoapsis: 667.129 km

Periapsis: 645.933 km

RAAN: 133.906 deg

Eccentricy: 0.00150655

Argument of periapsis: 83.1846 deg

Mean anomaly: 277.1074 deg

Mean motion: 14.7142299 rev/day

Mean motion (dot): 0.0000296 rev/day2

B* drag term: 0.00048535884 1/REarth

Two-line elements (TLE)

Creation date: Dec. 12, 2025, 10:14 a.m.

Reference frame: TEME

Reference center: EARTH

Epoch: Dec. 12, 2025, 7:26 a.m. UTC

TLE line 0: 0 UWE-1

TLE line 1: 1 28892U 05043C 25346.31039459 .00002960 00000-0 48536-3 0 9991

TLE line 2: 2 28892 98.2806 133.9060 0015066 83.1846 277.1074 14.71422990 74271

Live tracking on map

Real-time ground track for satellite UWE-1.

In-orbit conjunctions

A list of the most updated potential collisions computed for object UWE-1.

Target Orbit TCA Probability of collision Miss distance Type
CZ-4 DEB SSO 2025-03-02 12:52:39 0.0001339755 558.0 (m) DEBRIS
COSMOS 2251 DEB LEO 2025-02-15 22:29:55 0.0001523724 645.0 (m) DEBRIS
PSLV DEB SSO 2024-12-14 18:49:17 0.0003012957 544.0 (m) DEBRIS
PSLV R/B SSO 2024-08-09 16:57:39 0.0001097823 547.0 (m) ROCKET BODY
CZ-6A DEB SSO 2024-06-13 22:04:38 0.0002448722 81.0 (m) DEBRIS

Associated space launch

Civilian surveillance satellite.

UWE-1 was lifted into orbit during the mission ‘Kosmos-3M | Beijing-1’, on board a Kosmos-3M space rocket.

The launch took place on Oct. 27, 2005, 6:52 a.m. from 132/1 (132L).

For more information about the launch, click the button.

Launch to space Kosmos-3M | Beijing-1
Kosmos-3M | Beijing-1

Agency: N/A

Status: Launch Successful

Launch date: Oct. 27, 2005, 6:52 a.m. UTC

Rocket: Kosmos-3M

Launch pad: 132/1 (132L)

Location: Plesetsk Cosmodrome, Russian Federation

...

Latest news about this satellite

There are no fresh news available about this satellite. Check back as we update our databases every day.


Newsletter sign-up

Weekly statistics, charts and insights to help you stay on top of the space industry.